Weather reports worldwide

Advertisment
Ueckermünde, Germany (10193): temperature & dewpoint: 09.09.2019 10:00:00 - 15.09.2019 10:00:00 (CEST)Ueckermünde, Germany (10193): temperature 5cm & temperature -5cm: 09.09.2019 10:00:00 - 15.09.2019 10:00:00 (CEST)Ueckermünde, Germany (10193): temperature -20cm & temperature -100cm: 09.09.2019 10:00:00 - 15.09.2019 10:00:00 (CEST)Ueckermünde, Germany (10193): wind speed & gusts: 09.09.2019 10:00:00 - 15.09.2019 10:00:00 (CEST)Ueckermünde, Germany (10193): wind direction: 09.09.2019 10:00:00 - 15.09.2019 10:00:00 (CEST)Ueckermünde, Germany (10193): reduced air pressure: 09.09.2019 10:00:00 - 15.09.2019 10:00:00 (CEST)Ueckermünde, Germany (10193): visibility: 09.09.2019 10:00:00 - 15.09.2019 10:00:00 (CEST)Ueckermünde, Germany (10193): sunshine duration: 09.09.2019 10:00:00 - 15.09.2019 10:00:00 (CEST)Ueckermünde, Germany (10193): precipitation: 09.09.2019 10:00:00 - 15.09.2019 10:00:00 (CEST)
Date & Time tt [°C] td [°C] tt 5cm [°C] tt -5cm [°C] tt -20cm [°C] tt -100cm [°C] ff [km/h] ff [kn] fx [km/h] fx [kn] dd ppp [hPa] vv [km] sd [min] rr [mm]
15.09.2019 10:00:00 15,9 7,0 17,0 14,4 14,0 16,7 22 12 34 18 SW 1018,5 12 48 0,0
15.09.2019 09:00:00 13,8 6,8 14,6 11,8 14,0 16,7 18 10 28 15 SSW 1018,8 29 43 0,0
15.09.2019 08:00:00 10,2 5,7 9,8 10,3 14,1 16,8 15 8 23 12 SSW 1019,7 38 12 0,0
15.09.2019 07:00:00 9,2 5,3 8,2 9,8 14,3 16,8 13 7 24 13 SSW 1020,9 34 0 0,0
15.09.2019 06:00:00 9,5 5,3 8,4 9,9 14,6 16,8 16 9 21 11 S 1021,7 45 0 0,0
15.09.2019 05:00:00 8,8 5,2 7,8 10,0 14,8 16,8 14 8 19 11 S 1022,9 46 0 0,0
15.09.2019 04:00:00 8,6 5,3 7,6 10,2 15,1 16,8 13 7 18 10 S 1023,8 49 0 0,0
15.09.2019 03:00:00 8,7 5,4 7,6 10,5 15,4 16,8 12 7 17 9 S 1024,9 49 0 0,0
15.09.2019 02:00:00 8,6 5,3 7,4 10,7 15,7 16,8 11 6 19 10 SSW 1025,9 43 0 0,0
15.09.2019 01:00:00 8,5 5,6 7,3 11,0 16,1 16,8 11 6 15 8 S 1026,6 43 0 0,0
15.09.2019 00:00:00 7,8 6,0 4,8 11,5 16,5 16,8 7 4 11 6 SSW 1027,7 29 0 0,0
14.09.2019 23:00:00 7,5 6,4 4,4 12,2 16,9 16,8 5 3 7 4 SSW 1028,7 30 0 0,0
14.09.2019 22:00:00 8,5 7,2 5,4 13,3 17,3 16,8 4 2 9 5 SSW 1029,1 21 0 0,0
14.09.2019 21:00:00 11,5 7,3 6,7 14,6 17,6 16,8 4 2 7 4 SSW 1029,9 40 0 0,0
14.09.2019 20:00:00 11,4 7,0 7,6 16,4 17,8 16,9 5 3 10 5 WSW 1030,0 30 0 0,0
14.09.2019 19:00:00 15,4 6,9 13,7 18,7 17,7 16,9 6 3 17 9 WNW 1030,1 46 48 0,0
14.09.2019 18:00:00 16,9 7,4 17,8 20,4 17,6 16,9 11 6 20 11 WNW 1030,5 27 60 0,0
14.09.2019 17:00:00 17,4 7,4 19,6 21,1 17,3 16,9 13 7 22 12 WNW 1031,1 32 39 0,0
14.09.2019 16:00:00 17,2 8,4 18,7 21,1 16,9 16,9 7 4 23 12 NNW 1032,0 39 22 0,0
14.09.2019 15:00:00 17,4 6,4 19,4 22,2 16,3 16,9 14 8 24 13 WNW 1032,4 9 25 0,0
14.09.2019 14:00:00 17,5 3,7 22,4 21,8 15,7 16,9 12 7 23 13 WSW 1032,7 6 48 0,0
14.09.2019 13:00:00 17,0 8,0 20,4 19,8 15,2 16,9 8 5 18 10 NW 1033,3 8 28 0,0
14.09.2019 12:00:00 15,8 8,1 18,3 19,0 14,7 16,9 9 5 21 12 NW 1033,7 3,8 51 0,0
14.09.2019 11:00:00 15,1 8,5 18,8 16,5 14,3 16,9 12 6 26 14 NW 1034,0 9 60 0,0
14.09.2019 10:00:00 14,3 9,0 16,9 14,1 14,2 16,9 9 5 18 10 W 1034,0 20 60 0,0
14.09.2019 09:00:00 11,6 8,4 12,9 11,7 14,2 16,9 9 5 15 8 WSW 1033,7 27 60 0,0
14.09.2019 08:00:00 8,6 7,0 8,6 9,6 14,5 16,9 6 4 10 5 SSW 1033,5 37 44 0,0
14.09.2019 07:00:00 9,6 7,3 7,7 9,6 14,7 16,9 9 5 16 8 W 1033,1 45 0 0,0
14.09.2019 06:00:00 10,1 7,3 8,1 10,1 15,0 16,9 10 5 21 12 WNW 1033,1 46 0 0,0
14.09.2019 05:00:00 10,3 7,7 8,5 10,3 15,2 16,9 11 6 18 10 W 1032,8 48 0 0,0
14.09.2019 04:00:00 10,1 7,8 7,9 10,8 15,5 16,9 9 5 18 10 WSW 1032,6 43 0 0,0
14.09.2019 03:00:00 11,3 8,1 10,0 11,3 15,8 16,9 12 7 19 10 WSW 1032,5 48 0 0,0
14.09.2019 02:00:00 11,4 8,2 10,0 11,4 16,1 17,0 11 6 23 12 W 1032,7 50 0 0,0
14.09.2019 01:00:00 11,5 7,7 9,6 11,8 16,4 17,0 10 6 16 9 W 1032,4 59 0 0,0
14.09.2019 00:00:00 12,0 7,9 10,0 12,4 16,7 17,0 9 5 16 9 W 1032,0 62 0 0,0
13.09.2019 23:00:00 12,5 8,3 10,7 13,0 17,1 17,0 10 5 18 10 W 1031,8 54 0 0,0
13.09.2019 22:00:00 12,8 8,4 10,9 13,9 17,4 17,0 10 5 16 8 WSW 1031,4 53 0 0,0
13.09.2019 21:00:00 13,7 8,6 12,3 14,9 17,7 17,0 11 6 17 9 W 1030,9 56 0 0,0
13.09.2019 20:00:00 14,1 8,2 12,6 16,2 17,9 17,0 8 5 26 14 W 1030,3 66 0 0,0
13.09.2019 19:00:00 16,4 7,3 15,6 17,8 17,9 17,0 14 7 36 19 NW 1029,9 70 22 0,0
13.09.2019 18:00:00 17,3 7,9 18,5 19,5 17,7 17,0 12 7 35 19 NW 1029,7 52 57 0,0
13.09.2019 17:00:00 18,4 8,7 21,2 20,2 17,5 17,0 14 8 34 18 NW 1029,1 28 42 0,0
13.09.2019 16:00:00 17,6 9,5 18,5 20,4 17,3 17,0 15 8 38 20 NW 1028,5 50 43 0,0
13.09.2019 15:00:00 18,5 10,3 21,5 19,8 17,0 17,0 19 10 34 19 NW 1028,0 25 43 0,0
13.09.2019 14:00:00 18,4 11,0 21,4 19,5 16,7 17,0 16 9 32 17 NW 1027,2 36 34 0,0
13.09.2019 13:00:00 17,2 11,7 16,8 18,0 16,6 17,0 13 7 35 19 NW 1026,5 36 0 0,0
13.09.2019 12:00:00 16,6 13,9 16,3 17,6 16,4 17,0 17 9 42 23 NW 1025,4 41 2 0,9
13.09.2019 11:00:00 18,8 14,8 19,2 17,4 16,2 17,0 24 13 44 24 WSW 1024,1 24 2 0,0
13.09.2019 10:00:00 18,4 14,5 19,0 16,8 16,1 17,0 26 14 39 21 WSW 1023,6 19 3 0,0
13.09.2019 09:00:00 17,9 14,1 17,9 15,7 16,0 17,0 18 10 32 17 WSW 1023,5 27 0 0,0
13.09.2019 08:00:00 17,1 13,7 16,8 15,1 16,0 17,0 16 9 25 13 SW 1023,1 27 0 0,0
13.09.2019 07:00:00 16,4 13,4 15,8 14,6 16,1 17,0 16 9 26 14 SW 1023,3 23 0 0,0
13.09.2019 06:00:00 16,2 13,3 15,4 14,1 16,2 17,0 13 7 22 12 SW 1023,3 21 0 0,0
13.09.2019 05:00:00 14,7 12,1 14,1 14,0 16,3 17,0 13 7 18 10 S 1023,5 28 0 0,0
13.09.2019 04:00:00 15,1 12,1 14,5 14,2 16,4 17,0 13 7 16 9 S 1024,1 33 0 0,0
13.09.2019 03:00:00 14,9 12,0 14,3 14,0 16,6 17,1 10 5 16 9 SSW 1024,6 36 0 0,0
13.09.2019 02:00:00 14,2 11,6 13,2 13,6 16,8 17,1 11 6 16 8 S 1024,8 34 0 0,0
13.09.2019 01:00:00 12,8 11,2 11,5 13,5 17,1 17,1 7 4 11 6 SSW 1025,4 25 0 0,0
13.09.2019 00:00:00 14,0 11,4 10,6 14,0 17,4 17,1 7 4 10 5 SSW 1025,7 35 0 0,0
12.09.2019 23:00:00 14,0 11,5 11,0 14,8 17,7 17,1 7 4 11 6 SW 1025,9 37 0 0,0
12.09.2019 22:00:00 14,6 11,4 11,6 15,4 18,0 17,1 8 4 11 6 SSW 1025,9 32 0 0,0
12.09.2019 21:00:00 15,5 11,7 12,0 16,4 18,3 17,1 6 3 11 6 SSW 1025,8 41 0 0,0
12.09.2019 20:00:00 17,8 11,5 15,2 18,0 18,4 17,1 8 5 14 8 SW 1025,7 44 0 0,0
12.09.2019 19:00:00 19,2 11,7 18,1 19,7 18,3 17,1 9 5 20 11 WSW 1025,3 66 34 0,0
12.09.2019 18:00:00 - - - - - - - - - - - - - - -
12.09.2019 17:00:00 20,6 10,1 20,9 22,1 17,8 17,1 22 12 41 22 W 1025,4 42 34 0,0
12.09.2019 16:00:00 20,6 10,3 22,6 22,8 17,3 17,2 6 4 30 16 NW 1025,4 42 42 0,0
12.09.2019 15:00:00 - - - - - - - - - - - - - - -
12.09.2019 14:00:00 20,9 10,4 23,9 19,6 16,6 17,2 18 10 32 17 WSW 1025,6 27 27 0,0
12.09.2019 13:00:00 18,6 10,6 19,1 19,1 16,3 17,2 18 10 30 16 W 1025,8 40 21 0,0
12.09.2019 12:00:00 - - - - - - - - - - - - - - -
12.09.2019 11:00:00 18,2 13,4 20,8 17,7 15,7 17,2 19 10 32 18 WSW 1025,3 25 36 0,0
12.09.2019 10:00:00 16,8 13,4 18,2 16,3 15,5 17,2 21 11 34 18 WSW 1024,8 15 47 0,0
12.09.2019 09:00:00 15,7 13,5 16,5 15,0 15,5 17,2 16 9 27 15 WSW 1024,3 15 60 0,0
12.09.2019 08:00:00 14,1 12,8 14,0 13,4 15,6 17,2 11 6 20 11 SW 1023,5 13 46 0,0
12.09.2019 07:00:00 13,4 12,4 12,3 13,2 15,8 17,2 12 7 23 12 WSW 1023,0 17 0 0,0
12.09.2019 06:00:00 14,0 12,8 12,9 13,9 15,8 17,2 16 8 25 13 SW 1022,2 16 0 0,0
12.09.2019 05:00:00 14,7 13,5 14,1 14,4 15,9 17,3 16 8 27 15 WSW 1022,0 19 0 0,0
12.09.2019 04:00:00 14,6 13,6 14,1 14,5 15,9 17,3 16 9 26 14 WSW 1021,6 17 0 0,0
12.09.2019 03:00:00 - - - - - - - - - - - - - - -
12.09.2019 02:00:00 14,6 12,8 13,7 14,1 16,1 17,3 19 11 31 17 WSW 1020,9 4,5 0 0,1
12.09.2019 01:00:00 - - - - - - - - - - - - - - -
12.09.2019 00:00:00 - - - - - - - - - - - - - - -
11.09.2019 23:00:00 - - - - - - - - - - - - - - -
11.09.2019 22:00:00 16,8 7,8 15,5 14,2 16,8 17,3 12 6 18 10 S 1020,2 53 0 0,0
11.09.2019 21:00:00 - - - - - - - - - - - - - - -
11.09.2019 20:00:00 17,5 7,6 15,5 15,3 17,3 17,4 10 5 19 11 S 1020,1 29 0 0,0
11.09.2019 19:00:00 - - - - - - - - - - - - - - -
11.09.2019 18:00:00 20,0 7,7 19,2 17,2 17,4 17,4 12 6 31 17 SSW 1020,1 54 0 0,0
11.09.2019 17:00:00 - - - - - - - - - - - - - - -
11.09.2019 16:00:00 - - - - - - - - - - - - - - -
11.09.2019 15:00:00 21,0 7,6 23,3 20,8 16,6 17,5 23 12 45 24 SW 1020,8 15 58 0,0
11.09.2019 14:00:00 21,3 9,2 23,7 20,7 16,2 17,5 23 12 37 20 SSW 1021,1 19 54 0,0
11.09.2019 13:00:00 19,2 9,9 20,7 19,4 15,7 17,5 19 10 32 17 SW 1021,3 30 41 0,0
11.09.2019 12:00:00 18,5 9,5 20,5 18,6 15,3 17,5 20 11 33 18 SW 1021,7 28 60 0,0
11.09.2019 11:00:00 17,3 10,0 19,4 17,1 14,9 17,5 18 10 31 17 SW 1022,0 25 60 0,0
11.09.2019 10:00:00 15,9 10,9 17,8 15,3 14,8 17,5 14 8 25 14 SSW 1021,7 17 60 0,0
11.09.2019 09:00:00 13,5 10,2 14,6 13,2 14,8 17,5 14 8 22 12 SSW 1021,2 19 60 0,0
11.09.2019 08:00:00 11,8 9,9 11,9 11,7 15,0 17,6 10 5 16 9 SSW 1020,7 30 50 0,0
11.09.2019 07:00:00 10,9 9,7 10,0 11,5 15,2 17,6 12 7 16 9 SSW 1020,4 29 0 0,0
11.09.2019 06:00:00 11,6 9,8 10,3 12,0 15,3 17,6 11 6 22 12 SW 1019,6 37 0 0,0
11.09.2019 05:00:00 12,7 9,9 11,7 12,7 15,5 17,6 14 8 22 12 SW 1019,3 44 0 0,0
11.09.2019 04:00:00 13,9 10,6 13,0 13,3 15,5 17,6 13 7 24 13 SW 1019,1 55 0 0,0
11.09.2019 03:00:00 14,9 10,9 14,2 13,5 15,6 17,6 13 7 24 13 SW 1018,6 65 0 0,0
11.09.2019 02:00:00 15,1 10,9 14,5 13,5 15,7 17,6 14 8 24 13 SW 1018,2 66 0 0,0
11.09.2019 01:00:00 15,2 10,5 14,4 13,6 15,8 17,7 15 8 29 16 SW 1017,7 68 0 0,0
11.09.2019 00:00:00 15,4 10,4 14,8 13,8 15,9 17,7 17 9 30 16 SW 1017,2 61 0 0,0
10.09.2019 23:00:00 15,9 10,3 15,2 13,9 16,0 17,7 19 11 37 20 WSW 1016,7 67 0 0,0
10.09.2019 22:00:00 16,1 9,8 15,4 13,9 16,1 17,7 17 9 42 23 WSW 1016,1 60 0 0,0
10.09.2019 21:00:00 16,2 9,5 15,5 14,0 16,2 17,7 26 14 61 33 WSW 1015,5 69 0 0,0
10.09.2019 20:00:00 16,4 9,6 15,5 14,3 16,3 17,7 20 11 44 24 WSW 1014,8 69 0 0,0
10.09.2019 19:00:00 16,5 9,9 15,8 14,7 16,4 17,7 20 11 40 22 SW 1014,1 60 0 0,0
10.09.2019 18:00:00 16,6 10,3 16,0 15,1 16,4 17,7 22 12 44 24 SW 1013,5 70 0 0,0
10.09.2019 17:00:00 16,5 11,2 15,9 15,6 16,4 17,8 26 14 46 25 WSW 1012,8 55 0 0,0
10.09.2019 16:00:00 16,0 11,8 14,7 15,6 16,4 17,8 26 14 44 24 WSW 1012,1 23 0 0,0
10.09.2019 15:00:00 15,2 12,5 14,2 15,4 16,4 17,8 27 15 46 25 WSW 1011,3 27 0 0,0
10.09.2019 14:00:00 14,7 12,9 14,2 15,4 16,4 17,8 26 14 48 26 WSW 1010,8 24 0 1,0
10.09.2019 13:00:00 14,2 12,8 14,0 15,4 16,3 17,8 29 16 50 27 WSW 1009,8 16 0 0,7
10.09.2019 12:00:00 13,9 12,6 13,8 15,2 16,3 17,8 31 17 49 26 WSW 1009,0 9 0 0,6
10.09.2019 11:00:00 13,6 12,6 13,4 14,8 16,4 17,8 26 14 48 26 W 1008,4 12 0 1,1
10.09.2019 10:00:00 13,4 12,3 13,1 14,6 16,5 17,8 28 15 45 24 W 1007,8 24 0 0,6
10.09.2019 09:00:00 13,3 12,4 13,1 14,5 16,5 17,8 29 16 50 27 W 1007,3 12 0 1,1
10.09.2019 08:00:00 13,7 12,9 13,4 14,6 16,6 17,9 23 13 35 19 W 1007,2 23 0 0,3
10.09.2019 07:00:00 13,7 13,1 13,5 14,6 16,7 17,9 19 10 30 16 W 1007,2 17 0 0,2
10.09.2019 06:00:00 13,8 13,2 13,6 14,8 16,8 17,9 17 9 27 15 W 1007,1 14 0 0,1
10.09.2019 05:00:00 13,8 13,2 13,6 14,8 16,9 17,9 11 6 18 10 WSW 1007,1 11 0 0,0
10.09.2019 04:00:00 13,7 13,0 13,3 14,9 16,9 17,9 10 6 19 10 W 1007,6 12 0 0,0
10.09.2019 03:00:00 13,9 13,3 13,7 15,1 17,0 17,9 9 5 20 11 W 1007,9 13 0 0,2
10.09.2019 02:00:00 14,1 13,6 14,0 15,3 17,1 17,9 8 4 16 9 W 1008,4 6 0 0,0
10.09.2019 01:00:00 14,2 13,8 14,0 15,4 17,2 17,9 6 4 13 7 W 1008,5 5 0 0,0
10.09.2019 00:00:00 14,3 14,0 14,2 15,6 17,3 17,9 6 3 13 7 W 1008,8 3,1 0 0,0
09.09.2019 23:00:00 14,4 14,1 14,4 15,8 17,4 17,9 3 2 11 6 WNW 1008,9 3,9 0 0,0
09.09.2019 22:00:00 14,5 14,1 14,4 15,9 17,4 18,0 7 4 10 5 W 1008,9 2,4 0 0,2
09.09.2019 21:00:00 14,6 14,2 14,6 16,1 17,5 18,0 3 2 6 3 WSW 1009,6 2,9 0 0,5
09.09.2019 20:00:00 14,9 14,2 14,7 16,4 17,5 18,0 3 2 5 3 WSW 1009,3 3,6 0 0,0
09.09.2019 19:00:00 15,0 14,1 14,8 16,7 17,6 18,0 4 2 8 4 SE 1009,2 6 0 0,0
09.09.2019 18:00:00 14,9 14,1 14,9 16,7 17,6 18,0 4 2 12 6 E 1008,9 7 0 0,0
09.09.2019 17:00:00 14,6 13,9 14,7 16,5 17,6 18,0 5 3 16 9 E 1009,7 5 0 0,1
09.09.2019 16:00:00 14,4 13,5 14,3 16,7 17,7 18,0 10 5 25 13 ENE 1009,8 2,9 0 0,0
09.09.2019 15:00:00 14,8 12,4 14,4 17,1 17,7 18,0 14 7 21 12 NE 1010,0 32 0 0,0
09.09.2019 14:00:00 14,4 12,8 14,3 17,5 17,6 18,0 11 6 19 11 ENE 1010,8 28 0 0,3
09.09.2019 13:00:00 14,8 13,6 14,9 18,2 17,5 18,0 9 5 18 10 E 1011,3 7 0 0,8
09.09.2019 12:00:00 15,0 13,8 15,2 17,6 17,4 18,0 9 5 15 8 E 1011,8 5 0 0,4
09.09.2019 11:00:00 14,6 14,1 14,9 16,7 17,4 18,0 8 4 15 8 SE 1012,5 7 0 0,8
09.09.2019 10:00:00 14,6 13,8 14,8 16,5 17,4 18,1 7 4 12 7 S 1012,5 15 0 0,0

tt = temperature
td = dewpoint
tt 5cm = temperature 5cm
tt -5cm = temperature -5cm
tt -20cm = temperature -20cm
tt -100cm = temperature -100cm
ff = wind speed
fx = gusts
dd = wind direction
ppp = reduced air pressure
vv = visibility
sd = sunshine duration
rr = precipitation

Next stations